Location: Unspecified
(0.0000°N, 0.0000°E)
Time: 02:45:28
(UTC+00:00)

AO-73 - Visible Passes

Search period start: 24 April 2018 00:00
Search period end: 04 May 2018 00:00
Orbit: 584 x 664 km, 97.6° (Epoch: 23 April)

Date Brightness Start Highest point End Pass type
(mag) Time Alt. Az. Time Alt. Az. Time Alt. Az.
24 Apr ? 19:49:30 53° NW 19:49:30 53° NW 19:52:53 10° NNW visible
25 Apr ? 20:08:09 30° WNW 20:08:09 30° WNW 20:10:59 10° NW visible
26 Apr ? 18:49:32 16° E 18:49:40 16° ENE 18:52:18 10° NE visible
26 Apr ? 20:26:47 17° W 20:26:47 17° W 20:28:32 10° WNW visible
27 Apr ? 19:08:11 29° ENE 19:08:11 29° ENE 19:11:46 10° NNE visible
28 Apr ? 19:26:49 55° ENE 19:26:49 55° ENE 19:30:40 10° N visible
29 Apr ? 19:45:27 65° NW 19:45:27 65° NW 19:49:12 10° NNW visible
30 Apr ? 20:04:05 35° W 20:04:05 35° W 20:07:20 10° NNW visible
01 May ? 18:45:28 15° E 18:45:55 15° ENE 18:48:19 10° NE visible
01 May ? 20:22:43 19° W 20:22:43 19° W 20:25:01 10° NW visible
02 May ? 19:04:06 27° E 19:04:20 27° ENE 19:07:57 10° NNE visible
02 May ? 20:41:20 10° W 20:41:20 10° W 20:41:28 10° W visible
03 May ? 19:22:43 51° E 19:22:45 51° ENE 19:26:55 10° N visible
